Location: Newark
(46.7000°N, 60.6000°W)
Time: 20:59:52
(UTC+00:00)

Vanguard 1 Rocket - Pass Details

Date: 09 November 2020
Orbit: 656 x 4221 km, 34.3° (Epoch: 30 November)

Event Time Altitude Azimuth Distance (km) Brightness Sun altitude
Rises 14:37:19 0° 260° (W) 4,043 10.7 24.3°
Reaches altitude 10° 14:41:28 10° 241° (WSW) 2,613 10.0 24.5°
Maximum altitude 14:45:04 17° 202° (SSW) 1,860 10.0 24.7°
Drops below altitude 10° 14:48:05 10° 161° (SSE) 2,118 11.3 24.9°
Sets 14:50:57 0° 139° (SE) 2,962 11.1 25.0°
